Vigo, Spain

2:52 PM CEST on July 27, 2017 (GMT +0200)
Vigo

Weather History for LEVX - May, 2013

Change the Weather History Date:

Wednesday, May 15, 2013

  Actual Average Record
Temperature  
Mean Temperature 50 °F -  
Max Temperature 59 °F 67 °F 86 °F (2014)
Min Temperature 42 °F 52 °F 42 °F (2005)
Degree Days  
Heating Degree Days 14    
Moisture  
Dew Point 44 °F    
Average Humidity 80    
Maximum Humidity 100    
Minimum Humidity 47    
Precipitation  
Precipitation 0.35 in 0.14 in - ()
Sea Level Pressure  
Sea Level Pressure 29.80 in    
Wind  
Wind Speed 9 mph ()    
Max Wind Speed 18 mph    
Max Gust Speed -    
Visibility 5.9 miles    
Events Fog , Rain    
Averages and records for this station are not official NWS values.
T = Trace of Precipitation, MM = Missing Value Source: Averaged Metar Reports

Daily Weather History Graph

Daily Weather History Graph

Search for Another Location

Airport or City:

Trip Planner

Search our weather history database for the weather conditions in past years. The results will help you decide how hot, cold, wet, or windy it might be!

Date:

Astronomy

May. 15, 2013 Rise Set
Actual Time 7:13 AM CEST 9:48 PM CEST
Civil Twilight 6:41 AM CEST 10:21 PM CEST
Nautical Twilight 6:01 AM CEST 11:01 PM CEST
Astronomical Twilight 5:16 AM CEST 11:47 PM CEST
Moon 11:37 AM CEST (5/15) 1:26 AM CEST (5/15)
Length of Visible Light 15h 39m
Length of Day
14h 35m
Waxing Crescent, 24% of the Moon is Illuminated
May 15
Waxing Crescent
May 18
First Quarter
May 25
Full
May 31
Last Quarter
Jun 8
New

Hourly Weather History & Observations

Time (CEST) Temp. Windchill Dew Point Humidity Pressure Visibility Wind Dir Wind Speed Gust Speed Precip Events Conditions
12:00 AM 50.0 °F - 50.0 °F 100% 29.83 in 1.9 mi SW 5.8 mph - N/A Fog , Rain Rain
12:30 AM 50.0 °F - 50.0 °F 100% 29.80 in 1.9 mi SW 4.6 mph - N/A Fog , Rain Rain
1:00 AM 50.0 °F - 50.0 °F 100% 29.80 in 1.9 mi SW 3.5 mph - N/A Fog , Rain Rain
1:30 AM 50.0 °F - 50.0 °F 100% 29.77 in 1.9 mi SW 3.5 mph - N/A Fog , Rain Rain
2:00 AM 49 °F - 48 °F 96% 29.80 in 2 mi North 18.4 mph - - Rain Rain
2:00 AM 48.2 °F - 46.4 °F 93% 29.77 in 1.9 mi North 17.3 mph - N/A Fog , Rain Rain
2:30 AM 48.2 °F - 46.4 °F 93% 29.77 in 3.7 mi North 15.0 mph - N/A   Mostly Cloudy
3:00 AM 48.2 °F - 46.4 °F 93% 29.77 in 5.0 mi North 17.3 mph - N/A   Mostly Cloudy
3:30 AM 48.2 °F - 46.4 °F 93% 29.77 in 5.0 mi North 15.0 mph - N/A   Mostly Cloudy
4:00 AM 48.2 °F - 46.4 °F 93% 29.77 in 6.2 mi North 13.8 mph - N/A   Mostly Cloudy
4:30 AM 48.2 °F - 46.4 °F 93% 29.77 in 6.2 mi NNE 15.0 mph - N/A   Mostly Cloudy
5:00 AM 48.2 °F - 46.4 °F 93% 29.77 in 6.2 mi North 15.0 mph - N/A   Mostly Cloudy
5:30 AM 48.2 °F - 46.4 °F 93% 29.77 in 6.2 mi NNE 13.8 mph - N/A   Mostly Cloudy
6:00 AM 48.2 °F - 46.4 °F 93% 29.77 in 6.2 mi North 13.8 mph - N/A   Mostly Cloudy
7:00 AM 42.8 °F 40.1 °F 41.0 °F 93% 29.80 in 6.2 mi North 4.6 mph - N/A   Scattered Clouds
7:30 AM 41.0 °F - 41.0 °F 100% 29.80 in 6.2 mi Variable 1.2 mph - N/A   Partly Cloudy
8:00 AM 46 °F - 45 °F 93% 29.82 in 8 mi Calm Calm - -   Scattered Clouds
8:00 AM 42.8 °F - 41.0 °F 93% 29.80 in 6.2 mi Calm Calm - N/A   Partly Cloudy
8:30 AM 42.8 °F - 41.0 °F 93% 29.80 in 6.2 mi Variable 1.2 mph - N/A   Scattered Clouds
9:00 AM 44.6 °F 43.1 °F 42.8 °F 93% 29.80 in 6.2 mi Variable 3.5 mph - N/A   Scattered Clouds
9:30 AM 46.4 °F 43.5 °F 44.6 °F 93% 29.80 in 6.2 mi NNE 5.8 mph - N/A   Scattered Clouds
10:00 AM 50.0 °F - 44.6 °F 82% 29.80 in 6.2 mi NNE 5.8 mph - N/A   Scattered Clouds
10:30 AM 50.0 °F - 46.4 °F 87% 29.83 in 6.2 mi NNE 8.1 mph - N/A   Scattered Clouds
11:00 AM 50.0 °F - 42.8 °F 76% 29.83 in 6.2 mi NNE 9.2 mph - N/A   Scattered Clouds
11:30 AM 50.0 °F - 41.0 °F 71% 29.83 in 6.2 mi NNE 11.5 mph - N/A   Mostly Cloudy
12:00 PM 50.0 °F - 42.8 °F 76% 29.83 in 6.2 mi North 10.4 mph - N/A   Mostly Cloudy
12:30 PM 51.8 °F - 42.8 °F 71% 29.83 in 6.2 mi NE 11.5 mph - N/A   Scattered Clouds
1:00 PM 53.6 °F - 42.8 °F 67% 29.83 in 6.2 mi NNE 6.9 mph - N/A   Scattered Clouds
1:30 PM 53.6 °F - 42.8 °F 67% 29.80 in 6.2 mi North 9.2 mph - N/A   Mostly Cloudy
2:00 PM 55 °F - 41 °F 47% 29.82 in 19 mi North 11.5 mph - -   Mostly Cloudy
2:00 PM 53.6 °F - 42.8 °F 67% 29.80 in 6.2 mi NNE 9.2 mph - N/A   Mostly Cloudy
2:30 PM 55.4 °F - 42.8 °F 63% 29.80 in 6.2 mi North 9.2 mph - N/A   Mostly Cloudy
3:00 PM 55.4 °F - 42.8 °F 63% 29.80 in 6.2 mi North 10.4 mph - N/A   Mostly Cloudy
3:30 PM 55.4 °F - 42.8 °F 63% 29.80 in 6.2 mi North 10.4 mph - N/A   Mostly Cloudy
4:00 PM 57.2 °F - 46.4 °F 67% 29.80 in 6.2 mi NW 10.4 mph - N/A   Scattered Clouds
4:30 PM 57.2 °F - 46.4 °F 67% 29.80 in 6.2 mi NNW 10.4 mph - N/A   Scattered Clouds
5:00 PM 55.4 °F - 46.4 °F 72% 29.77 in 6.2 mi West 13.8 mph - N/A   Scattered Clouds
5:30 PM 55.4 °F - 46.4 °F 72% 29.77 in 6.2 mi West 13.8 mph - N/A   Scattered Clouds
6:00 PM 55.4 °F - 46.4 °F 72% 29.77 in 6.2 mi WNW 12.7 mph - N/A   Scattered Clouds
6:30 PM 55.4 °F - 46.4 °F 72% 29.77 in 6.2 mi NNW 11.5 mph - N/A   Scattered Clouds
7:00 PM 55.4 °F - 46.4 °F 72% 29.77 in 6.2 mi NNW 12.7 mph - N/A   Scattered Clouds
8:00 PM 53 °F - 40 °F 50% 29.81 in 22 mi NNW 12.7 mph - -   Mostly Cloudy
8:00 PM 53.6 °F - 41.0 °F 62% 29.80 in 6.2 mi NW 12.7 mph - N/A   Mostly Cloudy
8:30 PM 51.8 °F - 42.8 °F 71% 29.80 in 6.2 mi North 12.7 mph - N/A   Scattered Clouds
9:00 PM 51.8 °F - 41.0 °F 67% 29.80 in 6.2 mi North 9.2 mph - N/A   Scattered Clouds
9:30 PM 51.8 °F - 42.8 °F 71% 29.80 in 6.2 mi North 9.2 mph - N/A   Scattered Clouds
10:00 PM 50.0 °F - 41.0 °F 71% 29.80 in 6.2 mi North 10.4 mph - N/A   Partly Cloudy
10:30 PM 50.0 °F - 42.8 °F 76% 29.80 in 6.2 mi NNW 8.1 mph - N/A   Partly Cloudy
11:00 PM 50.0 °F - 42.8 °F 76% 29.83 in 6.2 mi NNW 9.2 mph - N/A   Scattered Clouds
11:30 PM 48.2 °F - 42.8 °F 82% 29.83 in 6.2 mi NNE 6.9 mph - N/A   Partly Cloudy